GW0206 Weather Reports


time (UTC)temp
C
wind
direction
speed
KPH
gust
KPH
rain 1hr
cm
rain 24hr
cm
rain mn
cm
humidity
%
barometer
mb
20260508232010 11 211 3.2 6.4 0.00 0.18 0.18 87 1010.0
20260508231523 11 200 0.0 9.7 0.00 0.18 0.18 87 1009.9
20260508231007 11 207 4.8 9.7 0.00 0.18 0.18 87 1009.9
20260508230507 11 198 4.8 9.7 0.00 0.18 0.18 86 1010.0
20260508230028 11 200 4.8 9.7 0.00 0.18 0.18 85 1010.1
20260508225508 11 200 3.2 6.4 0.00 0.18 0.18 85 1010.0
20260508225006 11 225 0.0 4.8 0.00 0.18 0.18 85 1010.0
20260508224527 11 221 1.6 4.8 0.00 0.18 0.18 85 1009.9
20260508224009 11 241 1.6 6.4 0.00 0.18 0.18 85 1009.8
20260508223513 11 259 1.6 6.4 0.00 0.18 0.18 85 1009.7
20260508223021 11 259 1.6 6.4 0.00 0.18 0.18 85 1009.7
20260508222508 11 278 1.6 6.4 0.00 0.18 0.18 85 1009.7
20260508222007 11 262 3.2 6.4 0.00 0.18 0.18 86 1009.6
20260508221518 11 283 3.2 6.4 0.00 0.18 0.18 86 1009.6
20260508221011 11 252 1.6 6.4 0.00 0.18 0.18 86 1009.7
20260508220510 11 268 1.6 9.7 0.00 0.18 0.18 86 1009.8
20260508220004 11 260 3.2 9.7 0.00 0.18 0.18 85 1009.8
20260508215502 11 278 4.8 9.7 0.00 0.18 0.18 85 1009.8
20260508215003 11 278 3.2 6.4 0.00 0.18 0.18 86 1010.0
20260508214515 11 266 1.6 4.8 0.00 0.18 0.18 85 1010.2
20260508214002 11 266 1.6 4.8 0.00 0.18 0.18 84 1010.2
20260508213506 11 266 1.6 4.8 0.00 0.18 0.18 84 1010.2
20260508213007 11 266 1.6 4.8 0.00 0.18 0.18 85 1010.2
20260508212501 11 266 0.0 4.8 0.00 0.18 0.18 85 1010.2
20260508212003 11 266 1.6 4.8 0.00 0.18 0.18 85 1010.2
20260508211505 11 305 1.6 4.8 0.00 0.18 0.18 84 1010.3
20260508211004 11 79 0.0 0.0 0.03 0.18 0.18 84 1010.5
20260508210503 11 79 0.0 0.0 0.03 0.18 0.18 85 1010.6
20260508210004 11 79 0.0 0.0 0.03 0.18 0.18 86 1010.7
20260508205504 11 79 0.0 0.0 0.05 0.18 0.18 86 1010.8
20260508205006 10 79 0.0 0.0 0.05 0.18 0.18 87 1010.9
20260508204504 10 79 0.0 0.0 0.05 0.18 0.18 89 1010.9
20260508204003 10 79 0.0 1.6 0.05 0.18 0.18 91 1011.1
20260508203507 10 79 0.0 3.2 0.05 0.18 0.18 90 1011.3
20260508203012 10 79 0.0 4.8 0.05 0.18 0.18 90 1011.2
20260508202503 10 79 0.0 4.8 0.05 0.18 0.18 89 1011.3
20260508202002 10 79 1.6 8.0 0.05 0.18 0.18 89 1011.4
20260508201509 10 76 3.2 8.0 0.05 0.18 0.18 89 1011.5
20260508201007 10 105 1.6 6.4 0.03 0.15 0.15 89 1011.6
20260508200503 10 98 3.2 6.4 0.03 0.15 0.15 88 1011.6
20260508200005 10 81 1.6 4.8 0.03 0.15 0.15 87 1011.7
20260508195503 10 83 1.6 9.7 0.00 0.13 0.13 87 1011.5
20260508195002 10 76 1.6 9.7 0.00 0.13 0.13 85 1011.5
20260508194506 10 137 4.8 11.3 0.00 0.13 0.13 84 1011.5
20260508194003 10 115 4.8 12.9 0.03 0.13 0.13 84 1011.4
20260508193506 10 57 4.8 14.5 0.03 0.13 0.13 82 1011.4
20260508193003 11 47 4.8 17.7 0.03 0.13 0.13 83 1011.4
20260508192504 10 64 9.7 22.5 0.03 0.13 0.13 84 1011.4
20260508192008 10 51 11.3 22.5 0.03 0.13 0.13 83 1011.5
20260508191522 10 41 11.3 20.9 0.03 0.13 0.13 85 1011.6
20260508191003 10 43 9.7 20.9 0.05 0.13 0.13 86 1011.5
20260508190503 10 21 9.7 20.9 0.05 0.13 0.13 86 1011.7
20260508190028 10 51 6.4 19.3 0.05 0.13 0.13 87 1011.7
20260508185502 10 82 11.3 27.4 0.05 0.13 0.13 87 1012.0
20260508185004 10 28 14.5 27.4 0.05 0.13 0.13 86 1011.9
20260508184505 10 38 9.7 17.7 0.08 0.13 0.13 86 1011.8
20260508184004 10 53 6.4 16.1 0.05 0.10 0.10 86 1011.9
20260508183507 10 9 8.0 16.1 0.05 0.10 0.10 86 1012.0
20260508183007 10 55 9.7 16.1 0.05 0.10 0.10 86 1012.2
20260508182504 10 43 8.0 19.3 0.05 0.10 0.10 84 1012.3
20260508182011 11 105 11.3 20.9 0.05 0.10 0.10 84 1012.4
20260508181507 11 113 11.3 20.9 0.05 0.10 0.10 83 1012.6
20260508181002 11 47 9.7 17.7 0.03 0.08 0.08 82 1012.7
20260508180508 11 92 8.0 22.5 0.03 0.08 0.08 81 1012.7
20260508180005 11 100 11.3 25.7 0.03 0.08 0.08 79 1012.7
20260508175503 11 108 9.7 27.4 0.03 0.08 0.08 78 1012.7
20260508175007 12 78 12.9 27.4 0.03 0.08 0.08 77 1012.8
20260508174521 12 110 12.9 22.5 0.00 0.05 0.05 77 1012.8
20260508174004 12 49 8.0 16.1 0.00 0.05 0.05 76 1012.8
20260508173509 12 96 6.4 22.5 0.00 0.05 0.05 77 1012.8
20260508173004 12 51 8.0 25.7 0.00 0.05 0.05 74 1012.7
20260508172505 12 102 11.3 29.0 0.00 0.05 0.05 73 1012.7
20260508172004 12 111 14.5 29.0 0.00 0.05 0.05 71 1012.7
20260508171509 12 134 11.3 24.1 0.00 0.05 0.05 72 1012.7
20260508171004 12 95 9.7 24.1 0.00 0.05 0.05 72 1012.7
20260508170504 12 55 9.7 19.3 0.00 0.05 0.05 73 1012.7
20260508170012 13 72 9.7 22.5 0.00 0.05 0.05 74 1012.6
20260508165505 13 130 11.3 25.7 0.00 0.05 0.05 71 1012.6
20260508165004 13 78 8.0 25.7 0.00 0.05 0.05 70 1012.7
20260508164509 13 44 16.1 25.7 0.00 0.05 0.05 66 1012.7
20260508164004 13 120 11.3 27.4 0.00 0.05 0.05 65 1012.6
20260508163508 14 107 16.1 27.4 0.00 0.05 0.05 65 1012.7
20260508163024 14 98 9.7 25.7 0.00 0.05 0.05 66 1012.6
20260508162504 14 73 11.3 27.4 0.00 0.05 0.05 66 1012.6
20260508162006 14 76 11.3 27.4 0.00 0.05 0.05 67 1012.6
20260508161521 15 96 14.5 27.4 0.00 0.05 0.05 66 1012.8
20260508161004 14 127 9.7 22.5 0.00 0.05 0.05 71 1012.8
20260508160504 13 115 12.9 22.5 0.00 0.05 0.05 68 1012.9
20260508160010 13 36 4.8 22.5 0.00 0.05 0.05 71 1013.0
20260508155505 13 107 11.3 25.7 0.00 0.05 0.05 70 1013.1
20260508155004 13 57 12.9 25.7 0.00 0.05 0.05 70 1012.9
20260508154515 13 62 11.3 24.1 0.00 0.05 0.05 69 1012.9
20260508154005 13 98 16.1 24.1 0.00 0.05 0.05 68 1012.9
20260508153510 13 88 9.7 29.0 0.00 0.05 0.05 67 1012.9
20260508153014 13 104 14.5 29.0 0.00 0.05 0.05 67 1012.8
20260508152510 14 57 12.9 25.7 0.00 0.05 0.05 68 1012.8
20260508152010 13 118 8.0 27.4 0.00 0.05 0.05 71 1012.7
20260508151511 13 89 9.7 30.6 0.00 0.05 0.05 70 1012.7
20260508151006 13 98 8.0 30.6 0.00 0.05 0.05 68 1012.7
20260508150509 13 110 17.7 30.6 0.00 0.05 0.05 67 1012.7
20260508150033 13 120 6.4 32.2 0.00 0.05 0.05 68 1012.8
20260508145506 13 85 14.5 32.2 0.00 0.05 0.05 67 1012.8
20260508145004 13 108 14.5 27.4 0.00 0.05 0.05 66 1012.7
20260508144510 13 111 11.3 25.7 0.00 0.05 0.05 67 1012.7
20260508144006 13 106 11.3 22.5 0.00 0.05 0.05 68 1012.8
20260508143509 13 117 11.3 22.5 0.00 0.05 0.05 65 1012.8
20260508143015 13 136 12.9 22.5 0.00 0.05 0.05 66 1012.7
20260508142506 13 115 8.0 20.9 0.00 0.05 0.05 71 1012.7
20260508142003 13 110 9.7 29.0 0.00 0.05 0.05 68 1012.8
20260508141522 13 112 19.3 29.0 0.00 0.05 0.05 67 1012.8
20260508141007 12 76 9.7 32.2 0.00 0.05 0.05 69 1012.8
20260508140511 12 113 11.3 32.2 0.00 0.05 0.05 69 1012.8
20260508140014 12 87 4.8 24.1 0.00 0.05 0.05 73 1012.8
20260508135510 12 96 12.9 25.7 0.00 0.05 0.05 69 1012.9
20260508135011 12 55 11.3 25.7 0.00 0.05 0.05 71 1012.9
20260508134537 12 100 11.3 20.9 0.00 0.05 0.05 72 1012.9
20260508134008 11 134 8.0 24.1 0.00 0.05 0.05 71 1013.0
20260508133513 11 126 9.7 30.6 0.00 0.05 0.05 70 1013.1
20260508133015 11 109 17.7 30.6 0.00 0.05 0.05 69 1013.1
20260508132506 11 65 8.0 24.1 0.00 0.05 0.05 71 1013.2
20260508132007 11 148 11.3 24.1 0.00 0.05 0.05 69 1013.1
20260508131517 11 88 12.9 22.5 0.00 0.05 0.05 70 1013.1
20260508131007 11 126 9.7 22.5 0.00 0.05 0.05 70 1013.2
20260508130508 11 76 9.7 17.7 0.00 0.05 0.05 71 1013.2
20260508130006 11 140 4.8 17.7 0.00 0.05 0.05 72 1013.2
20260508125503 10 119 6.4 27.4 0.00 0.05 0.05 72 1013.2
20260508125003 10 59 14.5 27.4 0.00 0.05 0.05 73 1013.1
20260508124504 10 61 11.3 20.9 0.00 0.05 0.05 73 1013.1
20260508124003 10 79 11.3 19.3 0.00 0.05 0.05 75 1013.0
20260508123503 9 61 11.3 22.5 0.00 0.05 0.05 75 1013.0
20260508123016 9 55 11.3 22.5 0.00 0.05 0.05 76 1012.9
20260508122503 8 25 9.7 22.5 0.00 0.05 0.05 79 1012.8
20260508122002 8 32 6.4 14.5 0.00 0.05 0.05 82 1013.0
20260508121513 8 53 6.4 14.5 0.00 0.05 0.05 82 1013.0
20260508121007 8 75 8.0 14.5 0.00 0.05 0.05 83 1013.0
20260508120504 7 73 6.4 11.3 0.00 0.05 0.05 84 1012.9
20260508120005 7 36 3.2 11.3 0.00 0.05 0.05 85 1012.9
20260508115503 7 27 6.4 14.5 0.00 0.05 0.05 85 1012.9
20260508115002 7 45 4.8 14.5 0.00 0.05 0.05 86 1012.9
20260508114506 7 60 4.8 11.3 0.03 0.05 0.05 87 1012.9
20260508114004 7 66 4.8 12.9 0.03 0.05 0.05 87 1012.9
20260508113503 7 78 6.4 12.9 0.03 0.05 0.05 87 1012.9
20260508113003 6 47 4.8 9.7 0.03 0.05 0.05 87 1012.7
20260508112502 6 51 3.2 8.0 0.03 0.05 0.05 87 1012.7
20260508112006 6 74 3.2 11.3 0.03 0.05 0.05 87 1012.8
20260508111513 6 100 4.8 11.3 0.03 0.05 0.05 86 1012.9
20260508111005 6 68 4.8 11.3 0.03 0.05 0.05 86 1012.9
20260508110505 7 68 3.2 11.3 0.03 0.05 0.05 85 1012.9
20260508110017 7 87 4.8 11.3 0.03 0.05 0.05 85 1012.9
20260508105502 7 91 3.2 27.4 0.03 0.05 0.05 85 1012.9
20260508105006 7 107 3.2 25.7 0.03 0.05 0.05 84 1013.0
20260508104520 7 121 9.7 24.1 0.00 0.03 0.03 83 1013.1
20260508104002 7 86 4.8 6.4 0.00 0.03 0.03 82 1012.9
20260508103502 7 84 0.0 4.8 0.00 0.03 0.03 81 1012.7
20260508103007 7 84 0.0 6.4 0.00 0.03 0.03 81 1012.6
20260508102504 7 70 3.2 6.4 0.00 0.03 0.03 80 1012.4
20260508102003 7 49 3.2 11.3 0.00 0.03 0.03 80 1012.3
20260508101509 7 48 4.8 11.3 0.00 0.03 0.03 80 1012.3
20260508101006 7 82 3.2 8.0 0.00 0.03 0.03 79 1012.2
20260508100506 7 44 3.2 11.3 0.00 0.03 0.03 79 1012.3
20260508100006 7 56 4.8 11.3 0.00 0.03 0.03 79 1012.3
20260508095505 7 90 3.2 11.3 0.00 0.03 0.03 78 1012.3
20260508095007 7 64 3.2 17.7 0.00 0.03 0.03 78 1012.3
20260508094521 7 58 4.8 19.3 0.00 0.03 0.03 78 1012.3
20260508094002 7 98 9.7 19.3 0.00 0.03 0.03 78 1012.3
20260508093506 7 140 8.0 27.4 0.00 0.03 0.03 78 1012.3
20260508093019 7 150 6.4 29.0 0.00 0.03 0.03 79 1012.4
20260508092509 7 135 11.3 29.0 0.00 0.03 0.03 79 1012.8
20260508092002 7 67 12.9 29.0 0.00 0.03 0.03 79 1012.6
20260508091507 6 84 8.0 14.5 0.00 0.03 0.03 80 1012.6
20260508091003 6 86 6.4 12.9 0.00 0.03 0.03 80 1012.7
20260508090502 6 112 4.8 12.9 0.00 0.03 0.03 80 1012.6
20260508090021 6 75 3.2 9.7 0.00 0.03 0.03 81 1012.7
20260508085507 6 56 4.8 9.7 0.00 0.03 0.03 81 1012.6
20260508085007 6 65 3.2 8.0 0.00 0.03 0.03 81 1012.5
20260508084512 6 47 3.2 12.9 0.00 0.03 0.03 81 1012.5
20260508084010 6 62 4.8 14.5 0.00 0.03 0.03 81 1012.4
20260508083507 6 69 6.4 14.5 0.00 0.03 0.03 80 1012.5
20260508083024 6 84 1.6 9.7 0.00 0.03 0.03 81 1012.7
20260508082503 6 67 4.8 11.3 0.00 0.03 0.03 80 1012.6
20260508082006 7 46 4.8 12.9 0.00 0.03 0.03 80 1012.8
20260508081525 7 49 4.8 12.9 0.00 0.03 0.03 79 1012.7
20260508081009 7 120 4.8 12.9 0.00 0.03 0.03 79 1012.8
20260508080507 7 76 6.4 11.3 0.00 0.03 0.03 80 1012.8
20260508080013 7 63 3.2 9.7 0.00 0.03 0.03 81 1012.8
20260508075503 7 74 3.2 9.7 0.00 0.03 0.03 80 1012.8
20260508075002 7 64 6.4 9.7 0.00 0.03 0.03 81 1012.9
20260508074525 7 60 4.8 11.3 0.00 0.03 0.03 81 1012.9
20260508074004 7 86 4.8 12.9 0.00 0.03 0.03 81 1013.0
20260508073506 7 75 4.8 12.9 0.00 0.03 0.03 80 1012.9
20260508073016 7 50 4.8 14.5 0.00 0.03 0.03 80 1012.8
20260508072506 7 76 9.7 14.5 0.00 0.03 0.03 79 1012.9
20260508072007 7 111 3.2 11.3 0.00 0.03 0.03 80 1012.9
20260508071530 7 84 4.8 12.9 0.00 0.03 0.03 80 1013.0
20260508071008 7 90 6.4 20.9 0.00 0.03 0.03 79 1013.1
20260508070512 7 113 11.3 20.9 0.03 0.03 0.03 79 1013.1
20260508070030 7 83 11.3 24.1 0.03 0.03 0.03 79 1013.2
20260508065503 7 71 11.3 38.6 0.03 0.03 0.03 79 1013.2
20260508065008 7 78 20.9 38.6 0.03 0.03 0.03 78 1013.1
20260508064527 7 71 8.0 17.7 0.03 0.03 0.03 81 1013.1
20260508064011 7 84 9.7 17.7 0.03 0.03 0.03 82 1013.0
20260508063502 7 80 4.8 9.7 0.03 0.03 0.03 83 1013.2
20260508063019 7 53 3.2 6.4 0.03 0.03 0.03 83 1013.1
20260508062508 7 38 3.2 6.4 0.03 0.03 0.03 84 1013.0
20260508062009 6 34 3.2 4.8 0.03 0.03 0.03 83 1013.0
20260508061521 6 45 1.6 4.8 0.03 0.03 0.03 83 1013.1
20260508061009 6 102 0.0 3.2 0.03 0.03 0.03 84 1013.1
20260508060508 7 102 0.0 6.4 0.00 0.00 0.00 83 1013.2
20260508060019 7 102 0.0 6.4 0.00 0.00 0.00 84 1013.3
20260508055505 6 94 3.2 4.8 0.00 0.00 0.00 83 1013.3
20260508055011 6 101 0.0 0.0 0.00 0.00 0.00 81 1013.2
20260508054527 6 101 0.0 0.0 0.00 0.00 0.00 81 1013.2
20260508054007 6 101 0.0 0.0 0.00 0.00 0.00 80 1013.3
20260508053509 7 101 0.0 0.0 0.00 0.00 0.00 79 1013.3
20260508053028 7 101 0.0 0.0 0.00 0.00 0.00 81 1013.4
20260508052511 7 101 0.0 0.0 0.00 0.00 0.00 81 1013.4
20260508052008 7 101 0.0 0.0 0.00 0.00 0.00 81 1013.4
20260508051516 7 101 0.0 0.0 0.00 0.00 0.00 80 1013.4
20260508051005 7 101 0.0 0.0 0.00 0.00 0.00 81 1013.4
20260508050505 7 101 0.0 0.0 0.00 0.00 0.00 78 1013.2
20260508050027 7 101 0.0 3.2 0.00 0.00 0.00 78 1013.3
20260508045512 7 101 0.0 4.8 0.00 0.00 0.00 77 1013.3
20260508045008 7 101 0.0 6.4 0.00 0.00 0.00 77 1013.3
20260508044523 7 113 3.2 9.7 0.00 0.00 0.00 76 1013.3
20260508044008 8 105 3.2 12.9 0.00 0.00 0.00 74 1013.3
20260508043514 8 29 1.6 12.9 0.00 0.00 0.00 73 1013.4
20260508043027 8 76 4.8 9.7 0.00 0.00 0.00 72 1013.9
20260508042507 8 113 1.6 4.8 0.00 0.00 0.00 71 1013.7
20260508042012 8 133 1.6 6.4 0.00 0.00 0.00 72 1013.6
20260508041530 8 131 0.0 6.4 0.00 0.00 0.00 71 1013.5
20260508041008 8 113 1.6 6.4 0.00 0.00 0.00 71 1013.4
20260508040512 8 122 1.6 11.3 0.00 0.00 0.00 71 1013.5
20260508040013 8 127 3.2 11.3 0.00 0.00 0.00 68 1013.6
20260508035505 8 103 3.2 9.7 0.00 0.00 0.00 69 1013.5
20260508035004 8 124 1.6 12.9 0.00 0.00 0.00 69 1013.5
20260508034509 8 114 3.2 12.9 0.00 0.00 0.00 69 1013.5
20260508034003 8 101 1.6 8.0 0.00 0.00 0.00 69 1013.5
20260508033510 8 65 1.6 14.5 0.00 0.00 0.00 67 1013.4
20260508033010 8 130 3.2 14.5 0.00 0.00 0.00 68 1013.5
20260508032504 7 111 6.4 14.5 0.00 0.00 0.00 67 1013.5
20260508032010 7 137 3.2 16.1 0.00 0.00 0.00 69 1013.6
20260508031512 7 68 6.4 16.1 0.00 0.00 0.00 69 1013.5
20260508031003 7 101 6.4 16.1 0.00 0.00 0.00 70 1013.6
20260508030505 7 74 3.2 6.4 0.00 0.00 0.00 71 1013.6
20260508030020 6 40 1.6 4.8 0.00 0.00 0.00 71 1013.5
20260508025508 6 40 1.6 4.8 0.00 0.00 0.00 70 1013.4
20260508025005 6 51 1.6 4.8 0.00 0.00 0.00 70 1013.4
20260508024514 6 70 0.0 4.8 0.00 0.00 0.00 69 1013.4
20260508024007 6 137 0.0 3.2 0.00 0.00 0.00 70 1013.4
20260508023508 6 137 0.0 0.0 0.00 0.00 0.00 69 1013.4
20260508023010 6 137 0.0 0.0 0.00 0.00 0.00 70 1013.5
20260508022506 6 137 0.0 0.0 0.00 0.00 0.00 69 1013.4
20260508022004 6 137 0.0 0.0 0.00 0.00 0.00 70 1013.5
20260508021515 6 137 0.0 0.0 0.00 0.00 0.00 70 1013.4
20260508021002 6 137 0.0 0.0 0.00 0.00 0.00 69 1013.3
20260508020505 6 137 0.0 0.0 0.00 0.00 0.00 70 1013.3
20260508020012 6 137 0.0 0.0 0.00 0.00 0.00 70 1013.3
20260508015502 6 137 0.0 0.0 0.00 0.00 0.00 69 1013.3
20260508015007 7 137 0.0 0.0 0.00 0.00 0.00 69 1013.3
20260508014517 7 137 0.0 1.6 0.00 0.00 0.00 69 1013.3
20260508014008 7 137 0.0 1.6 0.00 0.00 0.00 68 1013.2
20260508013502 7 137 0.0 1.6 0.00 0.00 0.00 67 1013.2
20260508013033 7 137 0.0 1.6 0.00 0.00 0.00 66 1013.2
20260508012508 7 137 0.0 0.0 0.00 0.00 0.00 65 1013.2
20260508012005 7 137 0.0 0.0 0.00 0.00 0.00 65 1013.2
20260508011516 7 137 0.0 0.0 0.00 0.00 0.00 64 1013.1
20260508011005 7 137 0.0 0.0 0.00 0.00 0.00 63 1013.0
20260508010509 8 137 0.0 0.0 0.00 0.00 0.00 63 1013.0
20260508010015 8 137 0.0 0.0 0.00 0.00 0.00 62 1013.0
20260508005505 8 137 0.0 1.6 0.00 0.00 0.00 62 1013.1
20260508005006 8 137 0.0 1.6 0.00 0.00 0.00 61 1013.0
20260508004527 8 137 0.0 1.6 0.00 0.00 0.00 61 1013.0
20260508004008 9 137 0.0 1.6 0.00 0.00 0.00 60 1012.9
20260508003511 9 137 0.0 3.2 0.00 0.00 0.00 59 1012.9
20260508003022 10 137 0.0 4.8 0.00 0.00 0.00 59 1012.9
20260508002504 10 137 0.0 4.8 0.00 0.00 0.00 57 1012.9
20260508002007 10 163 0.0 6.4 0.00 0.00 0.00 57 1012.8
20260508001521 10 163 0.0 6.4 0.00 0.00 0.00 57 1012.8
20260508001009 10 148 0.0 4.8 0.00 0.00 0.00 55 1012.7
20260508000504 10 148 1.6 8.0 0.00 0.00 0.00 57 1012.7
20260508000023 11 159 0.0 8.0 0.00 0.00 0.00 54 1012.6
20260507235507 11 131 0.0 6.4 0.00 0.00 0.00 57 1012.5
20260507235008 11 151 1.6 14.5 0.00 0.00 0.00 54 1012.4
20260507234512 11 141 1.6 14.5 0.00 0.00 0.00 54 1012.4
20260507234005 12 138 0.0 9.7 0.00 0.00 0.00 53 1012.3
20260507233504 12 140 0.0 14.5 0.00 0.00 0.00 52 1012.2
20260507233027 12 134 1.6 14.5 0.00 0.00 0.00 49 1012.2
20260507232510 12 157 3.2 14.5 0.00 0.00 0.00 51 1012.2